CYGFM05

Last updated on Wed Sep 09 2026 00:02:41 GMT+0000 (Coordinated Universal Time)

1 41884U 16078A 26251.19798018 .00028057 00000+0 33163-3 0 9996 2 41884 34.9561 69.4250 0005307 235.0249 124.9979 15.60254162541712
UTC large
Height (km)
Speed (km/s)
/
Latitude / Longitude
Inclination (degrees)
Orbital Period (minutes)
Azimuth
Elevation
Range (km)
Doppler Factor

Next 0 passes for location: London (51.5072 / 0.1276)

No passes found over London.
CYGFM05